Weather Roundup
Issued by NWS

Home | Current Version | Previous Version | Graphics & Text | Print | Product List | Glossary Off
Versions: 1 2 3 4 5 6 7 8 9 10 11 12 13 14 15 16 17 18 19 20 21 22 23 24 25 26 27 28 29 30 31 32 33 34 35 36 37 38 39 40 41 42 43 44 45 46 47 48 49 50

000
NZUS93 KARX 251459
HRRWXR

CURRENT HOURLY OBSERVATIONS ACROSS
MUCH OF THE UPPER MISSISSIPPI VALLEY
NATIONAL WEATHER SERVICE LA CROSSE WI
1000 AM CDT SAT APR 25 2015


...SOUTHEAST MINNESOTA...


CITY           SKY/WX    TMP DP  RH WIND       PRES   REMARKS
ROCHESTER      CLOUDY    44  38  79 E20       29.80R
ROCHESTER/MAYO CLOUDY    44  38  80 E10G17    29.81S
WINONA         NOT AVBL
AUSTIN         CLOUDY    46  39  76 E18       29.77R
ALBERT LEA     CLOUDY    46  39  76 E14G21    29.76R
DODGE CENTER   PTSUNNY   46  41  81 E16       29.79R
PRESTON        PTSUNNY   44  37  74 E14G20    29.80S
OWATONNA       PTSUNNY   46  39  76 E17       29.80S
FARIBAULT      CLOUDY    45  37  76 E10       29.82R
$$

...ELSEWHERE IN MINNESOTA...


CITY           SKY/WX    TMP DP  RH WIND       PRES   REMARKS
MINNEAPOLIS    PTSUNNY   48  37  65 E16       29.86R
INTNL FALLS    PTSUNNY   44  19  36 E10       29.98R
DULUTH         CLOUDY    36  23  59 E15       29.96R WCI  27
RED WING       PTSUNNY   46  36  66 E14       29.84S
REDWOOD FALLS  CLOUDY    45  37  73 E14G23    29.80S
MANKATO        CLOUDY    46  36  66 E14       29.81R
WORTHINGTON    CLOUDY    43  36  75 E15       29.75S
FAIRMONT       CLOUDY    45  16  31 E14       29.76S
$$

...SOUTHWEST WISCONSIN...


CITY           SKY/WX    TMP DP  RH WIND       PRES   REMARKS
LA CROSSE      CLOUDY    45  36  70 E15       29.83S
PRAIRIE DU CHI CLOUDY    44  34  68 NE6G16    29.78F
BOSCOBEL       CLOUDY    45  35  68 NE9G22    29.81S
LONE ROCK      NOT AVBL
PLATTEVILLE    CLOUDY    44  38  79 E14G22    29.77R
FORT MC COY    CLOUDY    43  35  75 E12G21    29.85S
VIROQUA        CLOUDY    43  38  82 E14       29.81R
WIS DELLS      CLOUDY    41  35  76 E13G20    29.83F
$$

...ELSEWHERE IN WISCONSIN...


CITY           SKY/WX    TMP DP  RH WIND       PRES   REMARKS
MILWAUKEE      CLOUDY    41  35  79 NE13      29.86F
MADISON        CLOUDY    44  36  73 E18G25    29.82F
GREEN BAY      CLOUDY    46  25  43 NE20      29.94S
EAU CLAIRE     CLOUDY    47  28  47 E14       29.87S
BLACK RVR FLS  CLOUDY    43  33  67 E13       29.85F
MEDFORD        MOSUNNY   44  15  31 E13G22    29.90S
WAUSAU         CLOUDY    46  18  32 E13G21    29.90S
WIS RAPIDS     CLOUDY    46  25  43 E13G20    29.89S
MARSHFIELD     CLOUDY    45  24  43 NE14      29.89R
RICE LAKE      PTSUNNY   46  20  35 E12       29.91S
$$

...NORTHEAST IOWA...


CITY           SKY/WX    TMP DP  RH WIND       PRES   REMARKS
DECORAH        CLOUDY    43  37  81 E13G18    29.77S
MASON CITY     CLOUDY    44  39  82 E16       29.76R
CHARLES CITY   CLOUDY    45  41  87 E18G28    29.75S
OELWEIN        CLOUDY    43  37  81 E22       29.71S
$$

...ELSEWHERE IN IOWA...


CITY           SKY/WX    TMP DP  RH WIND       PRES   REMARKS
DES MOINES     LGT RAIN  46  42  86 E13       29.62R
IOWA CITY      LGT RAIN  44  42  93 E12G17    29.71R FOG
FORT DODGE     CLOUDY    43  37  81 E18G26    29.70R
$$

...NORTHERN ILLINOIS...


CITY           SKY/WX    TMP DP  RH WIND       PRES   REMARKS
CHICAGO-OHARE  LGT RAIN  43  39  86 E15       29.76F
CHICAGO-MIDWAY LGT RAIN  45  41  86 E14       29.76F
MOLINE         CLOUDY    45  42  89 E14       29.68R FOG
ROCKFORD       LGT RAIN  45  37  73 E12G24    29.79R
PEORIA         RAIN      48  46  93 E7        29.69R FOG
$$

NOTE: "FAIR" INDICATES FEW OR NO CLOUDS BELOW 12,000 FEET WITH NO
SIGNIFICANT WEATHER AND/OR OBSTRUCTIONS TO VISIBILITY. WIND
SPEEDS ARE IN MILES-PER-HOUR.



USA.gov is the U.S. government's official web portal to all federal, state and local government web resources and services.